Location: Caltech
(34.1382°N, 118.1253°W)
Time: 08:33:25
(UTC-07:00)

SL-08 R/B - Visible Passes

Search period start: 20 August 2017 00:00
Search period end: 30 August 2017 00:00
Orbit: 675 x 740 km, 98.3° (Epoch: 19 August)

Date Brightness Start Highest point End Pass type
(mag) Time Alt. Az. Time Alt. Az. Time Alt. Az.
20 Aug 5.8 02:39:50 17° N 02:39:50 17° N 02:40:56 10° N visible
21 Aug 6.4 01:45:43 10° NNE 01:45:43 10° NNE 01:45:46 10° NNE visible
21 Aug 5.8 03:24:43 12° NNW 03:24:43 12° NNW 03:25:07 10° NNW visible
22 Aug 6.0 02:30:36 15° N 02:30:36 15° N 02:31:31 10° N visible
23 Aug 5.9 03:15:28 13° NNW 03:15:28 13° NNW 03:15:55 10° NNW visible
24 Aug 6.1 02:21:21 14° NNE 02:21:21 14° NNE 02:22:03 10° N visible
25 Aug 6.0 03:06:14 13° NNW 03:06:14 13° NNW 03:06:40 10° NNW visible
26 Aug 6.3 02:12:07 12° NNE 02:12:07 12° NNE 02:12:31 10° NNE visible
27 Aug 6.1 02:57:01 12° N 02:57:01 12° N 02:57:22 10° N visible
28 Aug 6.5 02:02:54 10° NNE 02:02:54 10° NNE 02:02:56 10° NNE visible
29 Aug 6.2 02:47:47 11° N 02:47:47 11° N 02:48:02 10° N visible
